JBU1798 KFLL-KATL

Flight info

Callsign JBU1798
Flight time 1h 33m
Altitude 35000
Route FRSBE2 STYMY Q77 SHRKS LAIRI LARZZ JJEDI4
Aircraft A320/M-SDE3FGHIRWY/LB1

Departure

Time 2026-05-05 20:28
Airport Fort Lauderdale Hollywood International Airport (KFLL)

Arrival

Time 2026-05-05 22:01
Airport Hartsfield Jackson Atlanta International Airport (KATL)
Time Latitude Longitude Altitude Speed Heading
2026-05-05 19:48 26.07047 -80.14670 16 ft 0 kts 17°
2026-05-05 19:50 26.07046 -80.14670 16 ft 0 kts 17°
2026-05-05 20:08 26.07045 -80.14670 16 ft 0 kts 17°
2026-05-05 20:14 26.07040 -80.14672 16 ft 3 kts 15°
2026-05-05 20:14 26.07019 -80.14678 17 ft 3 kts 18°
2026-05-05 20:15 26.07000 -80.14690 16 ft 3 kts 59°
2026-05-05 20:15 26.06994 -80.14712 16 ft 2 kts 90°
2026-05-05 20:15 26.06994 -80.14713 16 ft 0 kts 90°
2026-05-05 20:15 26.06994 -80.14711 16 ft 0 kts 90°
2026-05-05 20:16 26.06994 -80.14716 16 ft 2 kts 90°
2026-05-05 20:16 26.06994 -80.14732 16 ft 2 kts 58°
2026-05-05 20:16 26.06981 -80.14743 17 ft 2 kts 346°
2026-05-05 20:16 26.06969 -80.14736 17 ft 0 kts 322°
2026-05-05 20:19 26.06971 -80.14738 16 ft 1 kts 322°
2026-05-05 20:19 26.06992 -80.14758 16 ft 7 kts 319°
2026-05-05 20:19 26.07043 -80.14812 17 ft 12 kts 314°
2026-05-05 20:20 26.07104 -80.14882 16 ft 13 kts 315°
2026-05-05 20:20 26.07165 -80.14957 16 ft 12 kts 293°
2026-05-05 20:20 26.07152 -80.15050 16 ft 13 kts 283°
2026-05-05 20:20 26.07218 -80.15122 16 ft 14 kts 341°
2026-05-05 20:21 26.07323 -80.15127 16 ft 16 kts
2026-05-05 20:21 26.07442 -80.15126 16 ft 18 kts
2026-05-05 20:21 26.07490 -80.15218 16 ft 17 kts 269°
2026-05-05 20:21 26.07490 -80.15353 15 ft 18 kts 270°
2026-05-05 20:22 26.07491 -80.15499 16 ft 20 kts 271°
2026-05-05 20:22 26.07492 -80.15656 16 ft 21 kts 270°
2026-05-05 20:22 26.07493 -80.15822 16 ft 22 kts 270°
2026-05-05 20:22 26.07494 -80.16001 16 ft 24 kts 270°
2026-05-05 20:23 26.07495 -80.16191 16 ft 25 kts 270°
2026-05-05 20:23 26.07497 -80.16388 16 ft 26 kts 271°
2026-05-05 20:23 26.07497 -80.16543 16 ft 8 kts 270°
2026-05-05 20:23 26.07499 -80.16606 16 ft 7 kts 280°
2026-05-05 20:24 26.07502 -80.16615 16 ft 0 kts 291°
2026-05-05 20:24 26.07504 -80.16618 16 ft 2 kts 297°
2026-05-05 20:25 26.07533 -80.16639 16 ft 9 kts 342°
2026-05-05 20:25 26.07590 -80.16643 17 ft 0 kts 360°
2026-05-05 20:25 26.07592 -80.16643 17 ft 2 kts 360°
2026-05-05 20:25 26.07635 -80.16643 17 ft 9 kts
2026-05-05 20:26 26.07689 -80.16619 18 ft 9 kts 59°
2026-05-05 20:26 26.07695 -80.16571 18 ft 0 kts 90°
2026-05-05 20:26 26.07695 -80.16561 18 ft 5 kts 90°
2026-05-05 20:27 26.07695 -80.16469 19 ft 31 kts 90°
2026-05-05 20:27 26.07692 -80.15969 19 ft 95 kts 90°
2026-05-05 20:27 26.07688 -80.15041 16 ft 143 kts 90°
2026-05-05 20:27 26.07689 -80.13835 346 ft 158 kts 89°
2026-05-05 20:28 26.07702 -80.12246 1231 ft 156 kts 86°
2026-05-05 20:28 26.07738 -80.11407 1510 ft 164 kts 84°
2026-05-05 20:28 26.07833 -80.10079 1790 ft 183 kts 78°
2026-05-05 20:28 26.08318 -80.08683 2011 ft 206 kts 56°
2026-05-05 20:29 26.09335 -80.07436 2330 ft 230 kts 39°
2026-05-05 20:29 26.10758 -80.06452 2731 ft 252 kts 23°
2026-05-05 20:29 26.12447 -80.05787 3425 ft 262 kts 18°
2026-05-05 20:29 26.14201 -80.05174 4218 ft 266 kts 10°
2026-05-05 20:30 26.16048 -80.05045 5035 ft 268 kts 352°
2026-05-05 20:30 26.17843 -80.05500 5849 ft 269 kts 338°
2026-05-05 20:30 26.19617 -80.06189 6676 ft 271 kts 338°
2026-05-05 20:30 26.21292 -80.07149 7428 ft 273 kts 321°
2026-05-05 20:31 26.22647 -80.08632 8166 ft 275 kts 304°
2026-05-05 20:31 26.23554 -80.10507 8920 ft 277 kts 290°
2026-05-05 20:31 26.24254 -80.12513 9707 ft 279 kts 290°
2026-05-05 20:31 26.24967 -80.14540 10344 ft 287 kts 290°
2026-05-05 20:32 26.25863 -80.16638 10505 ft 310 kts 300°
2026-05-05 20:32 26.27058 -80.18742 10714 ft 329 kts 301°
2026-05-05 20:32 26.28301 -80.20912 11236 ft 335 kts 301°
2026-05-05 20:32 26.29559 -80.23109 11885 ft 337 kts 301°
2026-05-05 20:33 26.30820 -80.25319 12530 ft 339 kts 301°
2026-05-05 20:33 26.32085 -80.27541 13162 ft 340 kts 301°
2026-05-05 20:33 26.33354 -80.29775 13792 ft 342 kts 301°
2026-05-05 20:33 26.34630 -80.32024 14327 ft 344 kts 301°
2026-05-05 20:34 26.35911 -80.34289 14858 ft 346 kts 301°
2026-05-05 20:34 26.37183 -80.36537 15387 ft 348 kts 302°
2026-05-05 20:34 26.38481 -80.38827 15914 ft 350 kts 302°
2026-05-05 20:34 26.39785 -80.41130 16426 ft 352 kts 302°
2026-05-05 20:35 26.41097 -80.43448 16951 ft 355 kts 302°
2026-05-05 20:35 26.42418 -80.45784 17462 ft 357 kts 302°
2026-05-05 20:35 26.43746 -80.48135 17983 ft 359 kts 302°
2026-05-05 20:35 26.45083 -80.50503 18471 ft 362 kts 302°
2026-05-05 20:36 26.46470 -80.52864 18905 ft 364 kts 307°
2026-05-05 20:36 26.48187 -80.54942 19366 ft 366 kts 317°
2026-05-05 20:36 26.50266 -80.56610 19818 ft 371 kts 328°
2026-05-05 20:36 26.52640 -80.57791 20262 ft 377 kts 339°
2026-05-05 20:37 26.55170 -80.58602 20676 ft 380 kts 340°
2026-05-05 20:37 26.57727 -80.59408 21119 ft 382 kts 340°
2026-05-05 20:37 26.60258 -80.60210 21543 ft 384 kts 340°
2026-05-05 20:37 26.62830 -80.61026 21954 ft 386 kts 340°
2026-05-05 20:38 26.65425 -80.61850 22331 ft 388 kts 340°
2026-05-05 20:38 26.68031 -80.62679 22730 ft 391 kts 340°
2026-05-05 20:38 26.70652 -80.63516 23103 ft 393 kts 340°
2026-05-05 20:38 26.73294 -80.64361 23477 ft 395 kts 340°
2026-05-05 20:39 26.75942 -80.65206 23804 ft 397 kts 340°
2026-05-05 20:39 26.78611 -80.66055 24125 ft 399 kts 340°
2026-05-05 20:39 26.81284 -80.66906 24453 ft 400 kts 340°
2026-05-05 20:39 26.83968 -80.67761 24783 ft 402 kts 340°
2026-05-05 20:40 26.86660 -80.68618 25150 ft 403 kts 339°
2026-05-05 20:40 26.89359 -80.69478 25496 ft 403 kts 339°
2026-05-05 20:40 26.92059 -80.70349 25842 ft 404 kts 339°
2026-05-05 20:40 26.94741 -80.71294 26181 ft 404 kts 337°
2026-05-05 20:41 26.97409 -80.72302 26490 ft 405 kts 336°
2026-05-05 20:41 27.00074 -80.73341 26813 ft 406 kts 336°
2026-05-05 20:41 27.02745 -80.74391 27131 ft 408 kts 336°
2026-05-05 20:41 27.05430 -80.75440 27460 ft 409 kts 336°
2026-05-05 20:42 27.08127 -80.76482 27788 ft 411 kts 336°
2026-05-05 20:42 27.10838 -80.77517 28122 ft 412 kts 337°
2026-05-05 20:42 27.13527 -80.78533 28447 ft 414 kts 337°
2026-05-05 20:42 27.16264 -80.79565 28773 ft 415 kts 337°
2026-05-05 20:43 27.19002 -80.80596 29207 ft 414 kts 337°
2026-05-05 20:43 27.21728 -80.81626 29723 ft 411 kts 337°
2026-05-05 20:43 27.24432 -80.82648 30215 ft 409 kts 336°
2026-05-05 20:43 27.27118 -80.83669 30653 ft 406 kts 336°
2026-05-05 20:44 27.29786 -80.84687 31093 ft 404 kts 336°
2026-05-05 20:44 27.32436 -80.85696 31553 ft 401 kts 336°
2026-05-05 20:44 27.35059 -80.86722 32015 ft 397 kts 335°
2026-05-05 20:44 27.37645 -80.87775 32483 ft 394 kts 335°
2026-05-05 20:45 27.42753 -80.89908 33463 ft 388 kts 335°
2026-05-05 20:45 27.45272 -80.90963 33940 ft 385 kts 335°
2026-05-05 20:45 27.47784 -80.92006 34333 ft 383 kts 335°
2026-05-05 20:46 27.50276 -80.93036 34702 ft 381 kts 335°
2026-05-05 20:46 27.52761 -80.94060 34974 ft 380 kts 335°
2026-05-05 20:46 27.57767 -80.96129 35047 ft 387 kts 335°
2026-05-05 20:47 27.62845 -80.98227 35046 ft 389 kts 335°
2026-05-05 20:47 27.67936 -81.00324 35046 ft 390 kts 335°
2026-05-05 20:48 27.73002 -81.02419 35045 ft 390 kts 335°
2026-05-05 20:48 27.78093 -81.04520 35070 ft 390 kts 335°
2026-05-05 20:49 27.83180 -81.06624 35060 ft 389 kts 334°
2026-05-05 20:49 27.88264 -81.08742 35057 ft 389 kts 334°
2026-05-05 20:50 27.93336 -81.10852 35061 ft 388 kts 334°
2026-05-05 20:50 27.98408 -81.12957 35059 ft 388 kts 334°
2026-05-05 20:51 28.03478 -81.15069 35063 ft 388 kts 334°
2026-05-05 20:51 28.08436 -81.17435 35062 ft 385 kts 331°
2026-05-05 20:52 28.13284 -81.20016 35087 ft 384 kts 330°
2026-05-05 20:52 28.18092 -81.22574 35087 ft 384 kts 330°
2026-05-05 20:53 28.22957 -81.25096 35086 ft 384 kts 330°
2026-05-05 20:53 28.27826 -81.27593 35085 ft 384 kts 331°
2026-05-05 20:54 28.32689 -81.30099 35060 ft 384 kts 330°
2026-05-05 20:54 28.37563 -81.32615 35055 ft 385 kts 331°
2026-05-05 20:55 28.42446 -81.35104 35077 ft 385 kts 331°
2026-05-05 20:55 28.47326 -81.37584 35075 ft 384 kts 331°
2026-05-05 20:56 28.52192 -81.40071 35080 ft 383 kts 330°
2026-05-05 20:56 28.57025 -81.42554 35071 ft 383 kts 331°
2026-05-05 20:57 28.61889 -81.45049 35066 ft 383 kts 331°
2026-05-05 20:57 28.66750 -81.47546 35068 ft 383 kts 330°
2026-05-05 20:58 28.71607 -81.50044 35106 ft 383 kts 330°
2026-05-05 20:58 28.76456 -81.52538 35092 ft 382 kts 330°
2026-05-05 20:59 28.81296 -81.55031 35086 ft 382 kts 330°
2026-05-05 20:59 28.86134 -81.57522 35075 ft 381 kts 330°
2026-05-05 21:00 28.90973 -81.60007 35076 ft 382 kts 333°
2026-05-05 21:00 28.96252 -81.61259 35073 ft 395 kts 347°
2026-05-05 21:01 29.01732 -81.61754 35100 ft 395 kts 347°
2026-05-05 21:01 29.07218 -81.62244 35095 ft 395 kts 347°
2026-05-05 21:02 29.12670 -81.62735 35088 ft 395 kts 347°
2026-05-05 21:02 29.18149 -81.63234 35083 ft 395 kts 347°
2026-05-05 21:03 29.23633 -81.63739 35084 ft 395 kts 347°
2026-05-05 21:03 29.29111 -81.64243 35115 ft 395 kts 347°
2026-05-05 21:04 29.34584 -81.64746 35105 ft 394 kts 347°
2026-05-05 21:04 29.40049 -81.65251 35099 ft 394 kts 347°
2026-05-05 21:05 29.45509 -81.65756 35073 ft 394 kts 347°
2026-05-05 21:05 29.50972 -81.66256 35074 ft 394 kts 347°
2026-05-05 21:06 29.56435 -81.66761 35077 ft 394 kts 347°
2026-05-05 21:06 29.61893 -81.67277 35106 ft 393 kts 347°
2026-05-05 21:07 29.67311 -81.67782 35098 ft 393 kts 347°
2026-05-05 21:07 29.72761 -81.68280 35098 ft 393 kts 347°
2026-05-05 21:08 29.78205 -81.68778 35097 ft 392 kts 347°
2026-05-05 21:08 29.83647 -81.69283 35092 ft 392 kts 347°
2026-05-05 21:09 29.89087 -81.69789 35114 ft 392 kts 347°
2026-05-05 21:09 29.94520 -81.70290 35098 ft 392 kts 347°
2026-05-05 21:10 29.99950 -81.70796 35094 ft 391 kts 347°
2026-05-05 21:10 30.05376 -81.71307 35091 ft 391 kts 347°
2026-05-05 21:11 30.10769 -81.71807 35088 ft 391 kts 347°
2026-05-05 21:11 30.16231 -81.72314 35114 ft 391 kts 347°
2026-05-05 21:12 30.21616 -81.72816 35103 ft 391 kts 347°
2026-05-05 21:12 30.27033 -81.73328 35106 ft 390 kts 347°
2026-05-05 21:13 30.32456 -81.73835 35099 ft 390 kts 347°
2026-05-05 21:13 30.37875 -81.74340 35092 ft 390 kts 347°
2026-05-05 21:14 30.43285 -81.74851 35079 ft 390 kts 347°
2026-05-05 21:14 30.48703 -81.75361 35077 ft 390 kts 347°
2026-05-05 21:15 30.53208 -81.75780 35077 ft 390 kts 347°
2026-05-05 21:15 30.58620 -81.76285 35078 ft 390 kts 347°
2026-05-05 21:16 30.63818 -81.77541 35078 ft 374 kts 331°
2026-05-05 21:16 30.68468 -81.80194 35080 ft 372 kts 328°
2026-05-05 21:17 30.73107 -81.82874 35113 ft 372 kts 328°
2026-05-05 21:17 30.77715 -81.85541 35113 ft 372 kts 328°
2026-05-05 21:18 30.82353 -81.88227 35079 ft 372 kts 328°
2026-05-05 21:18 30.86988 -81.90908 35077 ft 372 kts 328°
2026-05-05 21:19 30.91620 -81.93599 35084 ft 372 kts 328°
2026-05-05 21:19 30.96251 -81.96290 35098 ft 372 kts 328°
2026-05-05 21:20 31.00884 -81.98987 35127 ft 372 kts 328°
2026-05-05 21:20 31.05507 -82.01680 35087 ft 371 kts 329°
2026-05-05 21:21 31.10097 -82.04357 35078 ft 371 kts 328°
2026-05-05 21:21 31.14708 -82.07048 35074 ft 370 kts 329°
2026-05-05 21:22 31.19320 -82.09741 35067 ft 370 kts 328°
2026-05-05 21:22 31.23925 -82.12447 35070 ft 370 kts 328°
2026-05-05 21:23 31.28534 -82.15142 35091 ft 370 kts 329°
2026-05-05 21:23 31.33145 -82.17831 35078 ft 370 kts 329°
2026-05-05 21:24 31.37746 -82.20528 35073 ft 370 kts 329°
2026-05-05 21:24 31.42342 -82.23230 35069 ft 370 kts 329°
2026-05-05 21:25 31.46937 -82.25936 35063 ft 369 kts 329°
2026-05-05 21:25 31.51529 -82.28641 35061 ft 369 kts 329°
2026-05-05 21:26 31.56122 -82.31345 35059 ft 369 kts 329°
2026-05-05 21:26 31.60715 -82.34057 35082 ft 370 kts 329°
2026-05-05 21:27 31.65305 -82.36775 35074 ft 370 kts 329°
2026-05-05 21:27 31.69901 -82.39500 35069 ft 369 kts 329°
2026-05-05 21:28 31.74462 -82.42200 35052 ft 369 kts 328°
2026-05-05 21:28 31.79055 -82.44919 34948 ft 374 kts 328°
2026-05-05 21:29 31.81395 -82.46312 34713 ft 379 kts 328°
2026-05-05 21:29 31.83744 -82.47707 34339 ft 377 kts 329°
2026-05-05 21:29 31.86081 -82.49090 33853 ft 374 kts 329°
2026-05-05 21:29 31.88406 -82.50469 33196 ft 374 kts 329°
2026-05-05 21:30 31.90729 -82.51851 32538 ft 375 kts 328°
2026-05-05 21:30 31.93058 -82.53239 31903 ft 375 kts 328°
2026-05-05 21:30 31.95364 -82.54679 31266 ft 374 kts 324°
2026-05-05 21:30 31.97501 -82.56404 30635 ft 372 kts 318°
2026-05-05 21:31 31.99467 -82.58383 29995 ft 372 kts 315°
2026-05-05 21:31 32.01429 -82.60388 29321 ft 372 kts 316°
2026-05-05 21:31 32.03384 -82.62375 28744 ft 370 kts 316°
2026-05-05 21:31 32.05328 -82.64349 28204 ft 368 kts 316°
2026-05-05 21:32 32.07234 -82.66287 27686 ft 365 kts 316°
2026-05-05 21:32 32.09148 -82.68235 27174 ft 362 kts 316°
2026-05-05 21:32 32.11049 -82.70175 26684 ft 360 kts 316°
2026-05-05 21:32 32.12932 -82.72099 26212 ft 357 kts 316°
2026-05-05 21:33 32.14806 -82.74015 25761 ft 355 kts 316°
2026-05-05 21:33 32.16665 -82.75916 25314 ft 353 kts 316°
2026-05-05 21:33 32.18515 -82.77811 24878 ft 351 kts 316°
2026-05-05 21:33 32.20349 -82.79694 24446 ft 349 kts 316°
2026-05-05 21:34 32.22174 -82.81566 24099 ft 346 kts 316°
2026-05-05 21:34 32.23997 -82.83436 24016 ft 347 kts 316°
2026-05-05 21:34 32.25825 -82.85313 24037 ft 349 kts 316°
2026-05-05 21:34 32.27657 -82.87193 24035 ft 349 kts 316°
2026-05-05 21:35 32.29491 -82.89075 24038 ft 349 kts 316°
2026-05-05 21:35 32.31325 -82.90961 24029 ft 349 kts 316°
2026-05-05 21:35 32.33160 -82.92853 24033 ft 349 kts 316°
2026-05-05 21:35 32.34992 -82.94741 24032 ft 349 kts 316°
2026-05-05 21:36 32.36824 -82.96628 24032 ft 349 kts 316°
2026-05-05 21:36 32.38657 -82.98511 23997 ft 350 kts 316°
2026-05-05 21:36 32.40497 -83.00399 23771 ft 349 kts 316°
2026-05-05 21:36 32.42329 -83.02283 23537 ft 347 kts 316°
2026-05-05 21:37 32.44148 -83.04155 23307 ft 346 kts 316°
2026-05-05 21:37 32.45962 -83.06023 23037 ft 345 kts 316°
2026-05-05 21:37 32.47769 -83.07885 22776 ft 344 kts 316°
2026-05-05 21:37 32.49575 -83.09745 22515 ft 343 kts 316°
2026-05-05 21:38 32.51374 -83.11599 22257 ft 343 kts 316°
2026-05-05 21:38 32.53168 -83.13453 22001 ft 342 kts 316°
2026-05-05 21:38 32.54957 -83.15305 21737 ft 341 kts 316°
2026-05-05 21:38 32.56721 -83.17131 21495 ft 341 kts 316°
2026-05-05 21:39 32.58509 -83.18981 21242 ft 341 kts 316°
2026-05-05 21:39 32.60295 -83.20826 20999 ft 340 kts 316°
2026-05-05 21:39 32.62080 -83.22671 20754 ft 340 kts 316°
2026-05-05 21:39 32.63861 -83.24513 20511 ft 339 kts 316°
2026-05-05 21:40 32.65640 -83.26357 20269 ft 338 kts 316°
2026-05-05 21:40 32.67408 -83.28192 20031 ft 338 kts 316°
2026-05-05 21:40 32.69174 -83.30031 19794 ft 337 kts 316°
2026-05-05 21:40 32.70935 -83.31866 19559 ft 337 kts 316°
2026-05-05 21:41 32.72695 -83.33698 19333 ft 337 kts 316°
2026-05-05 21:41 32.74456 -83.35534 19109 ft 336 kts 316°
2026-05-05 21:41 32.76210 -83.37362 18872 ft 336 kts 316°
2026-05-05 21:41 32.77967 -83.39192 18643 ft 336 kts 317°
2026-05-05 21:42 32.79725 -83.41020 18418 ft 335 kts 317°
2026-05-05 21:42 32.81475 -83.42841 18176 ft 334 kts 317°
2026-05-05 21:42 32.83222 -83.44663 17922 ft 334 kts 316°
2026-05-05 21:42 32.84962 -83.46483 17652 ft 333 kts 316°
2026-05-05 21:43 32.86697 -83.48300 17392 ft 332 kts 316°
2026-05-05 21:43 32.88428 -83.50111 17135 ft 331 kts 316°
2026-05-05 21:43 32.90151 -83.51914 16880 ft 330 kts 316°
2026-05-05 21:43 32.91850 -83.53696 16630 ft 329 kts 316°
2026-05-05 21:44 32.93565 -83.55496 16382 ft 328 kts 316°
2026-05-05 21:44 32.95274 -83.57287 16128 ft 327 kts 316°
2026-05-05 21:44 32.96979 -83.59071 15879 ft 326 kts 316°
2026-05-05 21:44 32.98675 -83.60847 15643 ft 324 kts 316°
2026-05-05 21:45 33.00360 -83.62606 15282 ft 320 kts 316°
2026-05-05 21:45 33.02028 -83.64349 14848 ft 319 kts 315°
2026-05-05 21:45 33.03695 -83.66096 14411 ft 318 kts 315°
2026-05-05 21:45 33.05354 -83.67840 13953 ft 318 kts 315°
2026-05-05 21:46 33.07010 -83.69582 13491 ft 317 kts 315°
2026-05-05 21:46 33.08661 -83.71317 13038 ft 316 kts 315°
2026-05-05 21:46 33.10301 -83.73035 12740 ft 310 kts 315°
2026-05-05 21:46 33.11890 -83.74701 12612 ft 299 kts 315°
2026-05-05 21:47 33.13423 -83.76315 12460 ft 290 kts 315°
2026-05-05 21:47 33.14925 -83.77897 12198 ft 285 kts 315°
2026-05-05 21:47 33.16409 -83.79468 11835 ft 285 kts 315°
2026-05-05 21:47 33.17897 -83.81045 11425 ft 287 kts 315°
2026-05-05 21:48 33.19375 -83.82623 11100 ft 284 kts 314°
2026-05-05 21:48 33.20804 -83.84257 10780 ft 282 kts 312°
2026-05-05 21:48 33.22179 -83.85901 10319 ft 278 kts 311°
2026-05-05 21:48 33.23546 -83.87559 9920 ft 278 kts 311°
2026-05-05 21:49 33.24891 -83.89188 9372 ft 273 kts 311°
2026-05-05 21:49 33.26230 -83.90802 8944 ft 274 kts 311°
2026-05-05 21:49 33.27581 -83.92430 8535 ft 278 kts 311°
2026-05-05 21:49 33.28951 -83.94072 8133 ft 280 kts 311°
2026-05-05 21:50 33.30316 -83.95701 7996 ft 276 kts 311°
2026-05-05 21:50 33.31677 -83.97330 8012 ft 278 kts 311°
2026-05-05 21:50 33.33045 -83.98967 8015 ft 278 kts 311°
2026-05-05 21:50 33.34415 -84.00605 8018 ft 279 kts 312°
2026-05-05 21:51 33.35964 -84.02008 8017 ft 282 kts 328°
2026-05-05 21:51 33.37800 -84.02792 8018 ft 288 kts 346°
2026-05-05 21:51 33.39816 -84.02952 8023 ft 292 kts 356°
2026-05-05 21:51 33.41845 -84.02983 7988 ft 292 kts 355°
2026-05-05 21:52 33.45949 -84.03081 7171 ft 296 kts 355°
2026-05-05 21:52 33.48008 -84.03147 6878 ft 295 kts 356°
2026-05-05 21:52 33.50052 -84.03219 6740 ft 293 kts 355°
2026-05-05 21:53 33.52087 -84.03297 6629 ft 292 kts 355°
2026-05-05 21:53 33.54122 -84.03376 6522 ft 293 kts 356°
2026-05-05 21:53 33.56158 -84.03457 6411 ft 293 kts 355°
2026-05-05 21:53 33.58170 -84.03753 6290 ft 290 kts 340°
2026-05-05 21:54 33.60051 -84.04592 6161 ft 284 kts 335°
2026-05-05 21:54 33.61849 -84.05486 6034 ft 276 kts 334°
2026-05-05 21:54 33.63399 -84.06685 5997 ft 255 kts 304°
2026-05-05 21:54 33.64024 -84.08487 5998 ft 228 kts 265°
2026-05-05 21:55 33.63600 -84.10227 5940 ft 217 kts 236°
2026-05-05 21:55 33.62974 -84.11864 5738 ft 220 kts 258°
2026-05-05 21:55 33.63076 -84.13707 5492 ft 222 kts 271°
2026-05-05 21:55 33.63155 -84.15539 5204 ft 218 kts 265°
2026-05-05 21:56 33.63159 -84.17356 4921 ft 217 kts 265°
2026-05-05 21:56 33.63160 -84.19153 4652 ft 214 kts 265°
2026-05-05 21:56 33.63163 -84.20914 4375 ft 207 kts 264°
2026-05-05 21:56 33.63167 -84.22611 4120 ft 200 kts 264°
2026-05-05 21:57 33.63169 -84.24257 3847 ft 194 kts 265°
2026-05-05 21:57 33.63172 -84.25845 3586 ft 187 kts 264°
2026-05-05 21:57 33.63174 -84.27356 3383 ft 173 kts 264°
2026-05-05 21:57 33.63177 -84.28729 3159 ft 159 kts 264°
2026-05-05 21:58 33.63179 -84.30010 2965 ft 149 kts 261°
2026-05-05 21:58 33.63179 -84.31242 2765 ft 146 kts 263°
2026-05-05 21:58 33.63179 -84.32451 2571 ft 144 kts 261°
2026-05-05 21:58 33.63178 -84.33673 2392 ft 149 kts 263°
2026-05-05 21:59 33.63179 -84.34916 2189 ft 148 kts 261°
2026-05-05 21:59 33.63180 -84.36157 2004 ft 148 kts 263°
2026-05-05 21:59 33.63176 -84.37369 1787 ft 145 kts 263°
2026-05-05 21:59 33.63174 -84.38543 1642 ft 141 kts 261°
2026-05-05 22:00 33.63191 -84.39735 1441 ft 145 kts 263°
2026-05-05 22:00 33.63183 -84.40968 1256 ft 150 kts 267°
2026-05-05 22:00 33.63182 -84.42214 1049 ft 144 kts 266°
2026-05-05 22:00 33.63179 -84.43266 1037 ft 103 kts 270°
2026-05-05 22:01 33.63182 -84.43924 1033 ft 56 kts 270°
2026-05-05 22:01 33.63250 -84.44219 1035 ft 33 kts 300°
2026-05-05 22:01 33.63349 -84.44241 1035 ft 16 kts 54°
2026-05-05 22:01 33.63365 -84.44101 1035 ft 19 kts 94°
2026-05-05 22:02 33.63361 -84.43939 1035 ft 20 kts 91°
2026-05-05 22:02 33.63362 -84.43762 1035 ft 22 kts 88°
2026-05-05 22:02 33.63362 -84.43669 1035 ft 23 kts 90°
2026-05-05 22:03 33.63362 -84.43486 1036 ft 25 kts 90°
2026-05-05 22:04 33.63361 -84.43273 1036 ft 26 kts 90°
2026-05-05 22:04 33.63362 -84.43056 1035 ft 26 kts 90°
2026-05-05 22:04 33.63374 -84.42877 1036 ft 17 kts 56°
2026-05-05 22:04 33.63487 -84.42849 1036 ft 18 kts
2026-05-05 22:05 33.63586 -84.42806 1035 ft 17 kts 44°
2026-05-05 22:05 33.63704 -84.42742 1035 ft 20 kts 14°
2026-05-05 22:05 33.63794 -84.42736 1035 ft 18 kts
2026-05-05 22:05 33.63922 -84.42736 1035 ft 19 kts
2026-05-05 22:06 33.64062 -84.42736 1035 ft 21 kts
2026-05-05 22:06 33.64213 -84.42737 1035 ft 20 kts 359°
2026-05-05 22:06 33.64313 -84.42735 1035 ft 11 kts
2026-05-05 22:06 33.64354 -84.42715 1035 ft 6 kts 77°
2026-05-05 22:07 33.64352 -84.42646 1035 ft 9 kts 90°
2026-05-05 22:07 33.64352 -84.42624 1035 ft 1 kts 90°
2026-05-05 22:09 33.64352 -84.42625 1035 ft 0 kts 90°